| time (UTC) | temp F | wind direction | speed knots | gust knots | rain 1hr in | rain 24hr in | rain mn in | humidity % | barometer mb |
| 20260502183054 | 56 | 360 | 0.0 | 2.6 | 0.00 | 0.00 | 0.00 | 85 | 1013.3 |
| 20260502181552 | 55 | 360 | 0.0 | 1.7 | 0.00 | 0.00 | 0.00 | 87 | 1013.4 |
| 20260502180119 | 55 | 0 | 0.0 | 1.7 | 0.00 | 0.00 | 0.00 | 86 | 1013.6 |
| 20260502163051 | 53 | 0 | 0.0 | 1.7 | 0.00 | 0.00 | 0.00 | 88 | 1015.2 |
| 20260502161554 | 53 | 0 | 0.0 | 1.7 | 0.00 | 0.00 | 0.00 | 89 | 1015.4 |
| 20260502151608 | 53 | 0 | 0.0 | 1.7 | 0.00 | 0.00 | 0.00 | 90 | 1014.7 |
| 20260502130104 | 51 | 0 | 0.0 | 0.9 | 0.00 | 0.00 | 0.00 | 92 | 1013.9 |
| 20260502123101 | 51 | 0 | 0.0 | 0.9 | 0.00 | 0.00 | 0.00 | 92 | 1013.9 |
| 20260502121603 | 51 | 0 | 0.0 | 0.9 | 0.00 | 0.00 | 0.00 | 92 | 1013.7 |
| 20260502114553 | 51 | 0 | 0.0 | 0.9 | 0.00 | 0.00 | 0.00 | 92 | 1013.9 |
| 20260502113057 | 51 | 0 | 0.0 | 1.7 | 0.00 | 0.00 | 0.00 | 92 | 1013.8 |
| 20260502111558 | 51 | 0 | 0.0 | 0.0 | 0.00 | 0.00 | 0.00 | 92 | 1013.8 |
| 20260502110055 | 51 | 0 | 0.0 | 0.0 | 0.00 | 0.00 | 0.00 | 91 | 1014.2 |
| 20260502104554 | 51 | 0 | 0.0 | 0.9 | 0.00 | 0.00 | 0.00 | 91 | 1014.1 |
| 20260502103053 | 51 | 0 | 0.0 | 0.9 | 0.00 | 0.00 | 0.00 | 91 | 1014.3 |
| 20260502101620 | 51 | 0 | 0.0 | 0.9 | 0.00 | 0.00 | 0.00 | 91 | 1014.0 |
| 20260502100110 | 51 | 0 | 0.0 | 0.9 | 0.00 | 0.00 | 0.00 | 92 | 1014.2 |
| 20260502080104 | 50 | 0 | 0.0 | 0.0 | 0.00 | 0.00 | 0.00 | 92 | 1013.3 |
| 20260502070050 | 50 | 0 | 0.0 | 0.9 | 0.00 | 0.00 | 0.00 | 92 | 1013.2 |
| 20260502064550 | 50 | 0 | 0.0 | 0.9 | 0.00 | 0.00 | 0.00 | 91 | 1013.3 |
| 20260502063054 | 50 | 0 | 0.0 | 0.0 | 0.00 | 0.00 | 0.00 | 91 | 1013.2 |
| 20260502061551 | 50 | 0 | 0.0 | 0.0 | 0.00 | 0.00 | 0.00 | 91 | 1013.3 |
| 20260502060056 | 50 | 0 | 0.0 | 0.0 | 0.00 | 0.00 | 0.00 | 91 | 1013.3 |
| 20260502054550 | 50 | 0 | 0.0 | 0.0 | 0.00 | 0.00 | 0.00 | 91 | 1013.4 |
| 20260502053055 | 50 | 0 | 0.0 | 0.0 | 0.00 | 0.00 | 0.00 | 91 | 1013.4 |
| 20260502051559 | 50 | 0 | 0.0 | 0.0 | 0.00 | 0.00 | 0.00 | 90 | 1013.7 |
| 20260502050056 | 50 | 0 | 0.0 | 0.0 | 0.00 | 0.00 | 0.00 | 90 | 1013.8 |
| 20260502044549 | 50 | 0 | 0.0 | 0.0 | 0.00 | 0.00 | 0.00 | 90 | 1013.8 |
| 20260502043050 | 51 | 0 | 0.0 | 0.0 | 0.00 | 0.00 | 0.00 | 90 | 1013.9 |
| 20260502041549 | 51 | 0 | 0.0 | 0.0 | 0.00 | 0.00 | 0.00 | 89 | 1014.0 |
| 20260502040050 | 51 | 0 | 0.0 | 0.0 | 0.00 | 0.00 | 0.00 | 89 | 1014.1 |
| 20260502034547 | 52 | 0 | 0.0 | 0.0 | 0.00 | 0.00 | 0.00 | 88 | 1014.2 |
| 20260502033053 | 52 | 0 | 0.0 | 0.0 | 0.00 | 0.00 | 0.00 | 88 | 1014.2 |
| 20260502031548 | 52 | 0 | 0.0 | 0.9 | 0.00 | 0.00 | 0.00 | 87 | 1014.1 |
| 20260502030050 | 52 | 153 | 0.0 | 0.9 | 0.00 | 0.00 | 0.00 | 87 | 1014.2 |
| 20260502024547 | 52 | 174 | 0.0 | 0.9 | 0.00 | 0.00 | 0.00 | 87 | 1014.3 |
| 20260502023051 | 52 | 0 | 0.0 | 1.7 | 0.00 | 0.00 | 0.00 | 87 | 1014.2 |
| 20260502021549 | 52 | 0 | 0.0 | 0.9 | 0.00 | 0.00 | 0.00 | 87 | 1014.4 |
| 20260502020047 | 52 | 123 | 0.0 | 1.7 | 0.00 | 0.00 | 0.00 | 87 | 1014.4 |
| 20260502014549 | 52 | 0 | 0.0 | 0.9 | 0.00 | 0.00 | 0.00 | 87 | 1014.2 |
| 20260502013056 | 51 | 0 | 0.0 | 0.0 | 0.00 | 0.00 | 0.00 | 87 | 1014.5 |
| 20260502011603 | 51 | 0 | 0.0 | 0.0 | 0.00 | 0.00 | 0.00 | 87 | 1014.4 |
| 20260502010048 | 52 | 0 | 0.0 | 0.9 | 0.00 | 0.00 | 0.00 | 86 | 1014.0 |
| 20260502004600 | 52 | 0 | 0.0 | 0.9 | 0.00 | 0.00 | 0.00 | 85 | 1014.2 |
| 20260502003050 | 53 | 0 | 0.0 | 0.0 | 0.00 | 0.00 | 0.00 | 83 | 1013.8 |
| 20260502001546 | 54 | 0 | 0.0 | 0.9 | 0.00 | 0.00 | 0.00 | 81 | 1013.9 |
| 20260502000107 | 54 | 0 | 0.0 | 0.9 | 0.00 | 0.00 | 0.00 | 79 | 1013.8 |
| 20260501234547 | 55 | 164 | 0.0 | 1.7 | 0.00 | 0.00 | 0.00 | 77 | 1013.8 |
| 20260501233048 | 55 | 0 | 0.0 | 1.7 | 0.00 | 0.00 | 0.00 | 76 | 1013.9 |
| 20260501231600 | 56 | 201 | 0.0 | 3.5 | 0.00 | 0.00 | 0.00 | 74 | 1013.7 |
| 20260501230049 | 56 | 0 | 0.0 | 4.3 | 0.00 | 0.00 | 0.00 | 75 | 1013.6 |
| 20260501224558 | 57 | 200 | 0.9 | 3.5 | 0.00 | 0.00 | 0.00 | 73 | 1013.9 |
| 20260501223050 | 57 | 145 | 0.0 | 3.5 | 0.00 | 0.00 | 0.00 | 74 | 1014.1 |
| 20260501221607 | 56 | 177 | 0.9 | 3.5 | 0.00 | 0.00 | 0.00 | 72 | 1014.3 |
| 20260501220053 | 56 | 214 | 1.7 | 6.1 | 0.00 | 0.00 | 0.00 | 71 | 1014.3 |
| 20260501214550 | 57 | 229 | 0.9 | 4.3 | 0.00 | 0.00 | 0.00 | 71 | 1014.4 |
| 20260501213049 | 57 | 163 | 0.9 | 5.2 | 0.00 | 0.00 | 0.00 | 72 | 1014.3 |
| 20260501211549 | 58 | 0 | 0.0 | 3.5 | 0.00 | 0.00 | 0.00 | 69 | 1014.3 |
| 20260501210049 | 59 | 313 | 0.9 | 4.3 | 0.00 | 0.00 | 0.00 | 65 | 1014.4 |
| 20260501204553 | 61 | 182 | 0.9 | 5.2 | 0.00 | 0.00 | 0.00 | 61 | 1014.3 |
| 20260501203046 | 63 | 248 | 0.9 | 4.3 | 0.00 | 0.00 | 0.00 | 57 | 1014.2 |
| 20260501201546 | 63 | 325 | 0.9 | 4.3 | 0.00 | 0.00 | 0.00 | 56 | 1014.1 |
| 20260501200048 | 63 | 240 | 0.0 | 4.3 | 0.00 | 0.00 | 0.00 | 57 | 1014.3 |
| 20260501194551 | 64 | 155 | 0.9 | 3.5 | 0.00 | 0.00 | 0.00 | 52 | 1014.6 |
| 20260501193047 | 64 | 163 | 0.9 | 5.2 | 0.00 | 0.00 | 0.00 | 55 | 1014.6 |
| 20260501191550 | 64 | 227 | 1.7 | 4.3 | 0.00 | 0.00 | 0.00 | 53 | 1014.9 |
| 20260501190059 | 63 | 159 | 0.9 | 5.2 | 0.00 | 0.00 | 0.00 | 56 | 1015.2 |
| 20260501184549 | 64 | 182 | 1.7 | 6.1 | 0.00 | 0.00 | 0.00 | 53 | 1015.6 |